map of YEO home
Great Circle Mapper logo
YEO - Airport
Location
City:  Yeovilton, Somerset, England, United Kingdom
ICAO / IATA:EGDY / YEO

Details
Type:Airport (Aerodrome, Airfield)
Use:Military, International (customs port of entry)
Latitude:5100'34"N (51.009358)
Longitude:238'20"W (-2.638818)
Datum:WGS 1984
Elevation:75 ft (23 m)
Variation:1.64W (WMM2015 magnetic declination)
0.15 annual change
Runways:2
Longest:7580 × 151 ft (2310 × 46 m), paved

Time
Time Zone:UTC+0 (DST+1)
Local Time:

Weather
METAR:EGDY 012350Z 32003KT 7000 HZ BKN022 17/16 Q1014 WHT

Related Locations
Nearby:
Farthest:NZBA: 11955 mi / 19240 km
Balclutha, NZ

Find:

   beyond  
but within

Other Information
Maps:
NOTAMs:
Links:
Sources:

  
flag of United Kingdom
flag of England
  

Sectional Chart

Flight Planning
at skyvector.com

Satellite Image

Google Maps Satellite view

 

Copyright © 2004-2015 Karl L. Swartz. All rights reserved.
The Great Circle Mapper name and logo are trademarks of the Great Circle Mapper.
All other trademarks mentioned herein belong to their respective owners.
Please see credits for attibutions and further copyright information.

  Follow gcmap on Facebook Follow gcmap on Twitter Follow gcmap on Google+

hCard Microformat

Geo Microformat